{"data":{"norad_id":46696,"epoch":"2026-05-25T06:00:02.000160Z","epoch_age_seconds":47215,"freshness":"FRESH","line1":"1 46696U 20073AC  26145.25002315  .00205759  26862-4  62079-3 0  9992","line2":"2 46696  53.0308 157.8582 0010508  20.3369 168.7100 15.91726458  5797","mean_motion":15.91726458,"eccentricity":0.0010508,"inclination_deg":53.0308,"raan_deg":157.8582,"arg_perigee_deg":20.3369,"mean_anomaly_deg":168.71,"bstar":0.00062079,"rev_number":579,"period_min":90.467805744044,"perigee_km":290.43668890657,"apogee_km":304.46610548211,"semimajor_km":6675.5883971943,"source":"CELESTRAK","updated_at":"2026-05-25T13:38:16.515620Z"}}